GLO6AC DIKO-DRRN

Flight info

Callsign GLO6AC
Flight time 1h 18m
Altitude 35000
Route TUXID DCT MOVOX DCT DEKAS DCT BANGA ETROT1R
Aircraft B738/M-SDE2E3FGHIRWXY/LB1

Departure

Time 2026-04-22 18:40
Airport Korhogo Airport (DIKO)

Arrival

Time 2026-04-22 19:59
Airport Diori Hamani International Airport (DRRN)
Time Latitude Longitude Altitude Speed Heading
2026-04-22 18:35 9.38875 -5.54759 1210 ft 0 kts 260°
2026-04-22 18:39 9.38873 -5.54772 1209 ft 16 kts 260°
2026-04-22 18:39 9.38806 -5.55153 1208 ft 92 kts 259°
2026-04-22 18:39 9.38653 -5.56003 1216 ft 154 kts 259°
2026-04-22 18:40 9.38474 -5.57159 1685 ft 170 kts 266°
2026-04-22 18:40 9.38877 -5.58280 2473 ft 174 kts 308°
2026-04-22 18:40 9.39979 -5.58963 3013 ft 199 kts 346°
2026-04-22 18:40 9.41411 -5.58864 3341 ft 226 kts 23°
2026-04-22 18:41 9.42783 -5.57941 3578 ft 250 kts 38°
2026-04-22 18:41 9.44218 -5.56782 3853 ft 276 kts 38°
2026-04-22 18:41 9.45717 -5.55560 4707 ft 276 kts 38°
2026-04-22 18:41 9.47204 -5.54354 5727 ft 269 kts 39°
2026-04-22 18:42 9.48651 -5.53175 6693 ft 266 kts 39°
2026-04-22 18:42 9.50112 -5.51992 7413 ft 272 kts 40°
2026-04-22 18:42 9.51604 -5.50797 8188 ft 275 kts 40°
2026-04-22 18:42 9.53113 -5.49597 8998 ft 277 kts 40°
2026-04-22 18:43 9.54636 -5.48394 9795 ft 279 kts 40°
2026-04-22 18:43 9.56202 -5.47161 10255 ft 295 kts 40°
2026-04-22 18:43 9.57889 -5.45834 10405 ft 319 kts 40°
2026-04-22 18:43 9.59702 -5.44412 10625 ft 338 kts 40°
2026-04-22 18:44 9.60975 -5.43417 10932 ft 345 kts 40°
2026-04-22 18:44 9.62893 -5.41922 11507 ft 350 kts 40°
2026-04-22 18:44 9.64832 -5.40412 12135 ft 354 kts 40°
2026-04-22 18:44 9.66795 -5.38883 12739 ft 358 kts 40°
2026-04-22 18:45 9.68763 -5.37350 13333 ft 363 kts 40°
2026-04-22 18:45 9.70779 -5.35779 13886 ft 368 kts 40°
2026-04-22 18:45 9.72817 -5.34191 14450 ft 371 kts 39°
2026-04-22 18:45 9.74869 -5.32591 15008 ft 374 kts 39°
2026-04-22 18:46 9.76942 -5.30974 15529 ft 378 kts 39°
2026-04-22 18:46 9.79035 -5.29342 16073 ft 381 kts 39°
2026-04-22 18:46 9.81141 -5.27699 16582 ft 384 kts 39°
2026-04-22 18:46 9.83271 -5.26037 17097 ft 388 kts 38°
2026-04-22 18:47 9.85418 -5.24361 17628 ft 391 kts 38°
2026-04-22 18:47 9.87581 -5.22672 18149 ft 393 kts 38°
2026-04-22 18:47 9.89752 -5.20978 18601 ft 396 kts 38°
2026-04-22 18:47 9.91941 -5.19268 19033 ft 398 kts 38°
2026-04-22 18:48 9.94139 -5.17550 19495 ft 400 kts 38°
2026-04-22 18:48 9.96350 -5.15823 19963 ft 401 kts 38°
2026-04-22 18:48 9.98567 -5.14091 20360 ft 405 kts 38°
2026-04-22 18:48 10.00668 -5.12176 20750 ft 408 kts 47°
2026-04-22 18:49 10.02430 -5.09914 21192 ft 410 kts 55°
2026-04-22 18:49 10.04021 -5.07502 21591 ft 413 kts 56°
2026-04-22 18:49 10.05598 -5.05063 21964 ft 416 kts 56°
2026-04-22 18:49 10.07192 -5.02595 22343 ft 419 kts 56°
2026-04-22 18:50 10.08796 -5.00118 22718 ft 421 kts 56°
2026-04-22 18:50 10.10418 -4.97629 23093 ft 424 kts 56°
2026-04-22 18:50 10.12051 -4.95134 23447 ft 426 kts 55°
2026-04-22 18:50 10.13700 -4.92621 23734 ft 429 kts 55°
2026-04-22 18:51 10.15355 -4.90103 24047 ft 430 kts 55°
2026-04-22 18:51 10.17023 -4.87569 24364 ft 431 kts 55°
2026-04-22 18:51 10.18692 -4.85031 24667 ft 433 kts 55°
2026-04-22 18:51 10.20370 -4.82481 24961 ft 435 kts 55°
2026-04-22 18:52 10.22053 -4.79922 25249 ft 437 kts 55°
2026-04-22 18:52 10.23746 -4.77346 25541 ft 439 kts 55°
2026-04-22 18:52 10.25422 -4.74796 25830 ft 441 kts 55°
2026-04-22 18:52 10.27125 -4.72204 26109 ft 442 kts 54°
2026-04-22 18:53 10.28859 -4.69564 26390 ft 444 kts 54°
2026-04-22 18:53 10.30554 -4.66983 26655 ft 446 kts 54°
2026-04-22 18:53 10.32303 -4.64320 26920 ft 448 kts 54°
2026-04-22 18:53 10.34009 -4.61721 27184 ft 450 kts 54°
2026-04-22 18:54 10.35744 -4.59076 27444 ft 451 kts 54°
2026-04-22 18:54 10.37488 -4.56418 27705 ft 453 kts 54°
2026-04-22 18:54 10.39240 -4.53747 27941 ft 455 kts 54°
2026-04-22 18:54 10.41000 -4.51063 28191 ft 457 kts 54°
2026-04-22 18:55 10.42763 -4.48375 28439 ft 458 kts 54°
2026-04-22 18:55 10.44533 -4.45673 28685 ft 460 kts 54°
2026-04-22 18:55 10.46307 -4.42966 28924 ft 461 kts 54°
2026-04-22 18:55 10.48087 -4.40250 29156 ft 463 kts 54°
2026-04-22 18:56 10.49878 -4.37515 29391 ft 465 kts 54°
2026-04-22 18:56 10.51670 -4.34778 29601 ft 466 kts 54°
2026-04-22 18:56 10.53467 -4.32033 29817 ft 468 kts 54°
2026-04-22 18:56 10.55273 -4.29273 30011 ft 469 kts 54°
2026-04-22 18:57 10.57081 -4.26510 30223 ft 470 kts 54°
2026-04-22 18:57 10.58888 -4.23747 30460 ft 470 kts 54°
2026-04-22 18:57 10.60695 -4.20983 30704 ft 470 kts 54°
2026-04-22 18:57 10.62505 -4.18215 30936 ft 470 kts 54°
2026-04-22 18:58 10.64311 -4.15452 31155 ft 471 kts 54°
2026-04-22 18:58 10.66124 -4.12678 31402 ft 471 kts 54°
2026-04-22 18:58 10.67934 -4.09907 31651 ft 471 kts 54°
2026-04-22 18:58 10.69746 -4.07133 31872 ft 471 kts 54°
2026-04-22 18:59 10.71558 -4.04358 32099 ft 472 kts 55°
2026-04-22 18:59 10.73374 -4.01575 32345 ft 472 kts 55°
2026-04-22 18:59 10.75188 -3.98797 32593 ft 472 kts 55°
2026-04-22 18:59 10.77004 -3.96013 32836 ft 472 kts 55°
2026-04-22 19:00 10.78819 -3.93229 33076 ft 473 kts 55°
2026-04-22 19:00 10.80613 -3.90477 33317 ft 473 kts 55°
2026-04-22 19:00 10.82432 -3.87688 33562 ft 473 kts 55°
2026-04-22 19:00 10.84250 -3.84899 33814 ft 473 kts 55°
2026-04-22 19:01 10.86071 -3.82104 34032 ft 474 kts 54°
2026-04-22 19:01 10.87877 -3.79298 34207 ft 475 kts 57°
2026-04-22 19:01 10.89517 -3.76372 34413 ft 476 kts 58°
2026-04-22 19:01 10.91076 -3.73399 34666 ft 475 kts 60°
2026-04-22 19:02 10.92593 -3.70424 34812 ft 476 kts 61°
2026-04-22 19:02 10.94118 -3.67423 34821 ft 478 kts 60°
2026-04-22 19:02 10.97191 -3.61417 34820 ft 479 kts 60°
2026-04-22 19:03 11.00299 -3.55416 34809 ft 479 kts 61°
2026-04-22 19:03 11.03416 -3.49414 34804 ft 479 kts 60°
2026-04-22 19:04 11.06532 -3.43421 34799 ft 479 kts 59°
2026-04-22 19:04 11.09638 -3.37441 34796 ft 477 kts 60°
2026-04-22 19:05 11.12739 -3.31469 34798 ft 476 kts 60°
2026-04-22 19:05 11.15802 -3.25566 34798 ft 474 kts 60°
2026-04-22 19:06 11.18874 -3.19641 34799 ft 472 kts 60°
2026-04-22 19:07 11.23465 -3.10781 34799 ft 471 kts 60°
2026-04-22 19:07 11.26514 -3.04893 34796 ft 470 kts 61°
2026-04-22 19:08 11.29563 -2.99001 34815 ft 470 kts 60°
2026-04-22 19:08 11.32611 -2.93106 34802 ft 470 kts 60°
2026-04-22 19:09 11.35658 -2.87210 34797 ft 471 kts 60°
2026-04-22 19:09 11.38194 -2.82299 34802 ft 471 kts 60°
2026-04-22 19:10 11.41764 -2.75383 34800 ft 472 kts 60°
2026-04-22 19:10 11.44823 -2.69454 34803 ft 473 kts 60°
2026-04-22 19:11 11.47884 -2.63516 34796 ft 473 kts 61°
2026-04-22 19:11 11.50950 -2.57567 36442 ft 473 kts 62°
2026-04-22 19:11 11.52480 -2.54599 34766 ft 473 kts 60°
2026-04-22 19:12 11.54006 -2.51636 34847 ft 472 kts 60°
2026-04-22 19:12 11.55535 -2.48662 36372 ft 473 kts 62°
2026-04-22 19:12 11.57063 -2.45697 34760 ft 472 kts 60°
2026-04-22 19:13 11.60117 -2.39757 34868 ft 475 kts 60°
2026-04-22 19:13 11.63203 -2.33752 34894 ft 481 kts 60°
2026-04-22 19:14 11.66315 -2.27691 34883 ft 481 kts 60°
2026-04-22 19:14 11.69389 -2.21699 34879 ft 478 kts 60°
2026-04-22 19:15 11.71970 -2.16668 34891 ft 478 kts 60°
2026-04-22 19:15 11.75566 -2.09655 34898 ft 477 kts 60°
2026-04-22 19:16 11.78639 -2.03657 34897 ft 477 kts 60°
2026-04-22 19:16 11.81691 -1.97698 34898 ft 477 kts 60°
2026-04-22 19:17 11.84766 -1.91688 34899 ft 478 kts 60°
2026-04-22 19:17 11.87842 -1.85673 34900 ft 479 kts 60°
2026-04-22 19:18 11.90924 -1.79643 34896 ft 480 kts 60°
2026-04-22 19:18 11.94013 -1.73594 34897 ft 481 kts 60°
2026-04-22 19:19 11.97103 -1.67539 34897 ft 482 kts 60°
2026-04-22 19:19 12.00200 -1.61468 34895 ft 482 kts 60°
2026-04-22 19:20 12.03302 -1.55383 34895 ft 483 kts 60°
2026-04-22 19:20 12.06400 -1.49298 34886 ft 483 kts 59°
2026-04-22 19:21 12.09506 -1.43199 34896 ft 484 kts 59°
2026-04-22 19:21 12.12610 -1.37097 34891 ft 485 kts 59°
2026-04-22 19:22 12.15721 -1.30979 34895 ft 485 kts 59°
2026-04-22 19:22 12.18830 -1.24858 34887 ft 485 kts 59°
2026-04-22 19:23 12.21940 -1.18732 34891 ft 485 kts 59°
2026-04-22 19:23 12.25049 -1.12605 34888 ft 486 kts 59°
2026-04-22 19:24 12.28156 -1.06477 34887 ft 485 kts 59°
2026-04-22 19:24 12.31263 -1.00345 34890 ft 485 kts 59°
2026-04-22 19:25 12.34363 -0.94222 34890 ft 485 kts 59°
2026-04-22 19:25 12.37469 -0.88084 34893 ft 485 kts 59°
2026-04-22 19:26 12.40568 -0.81956 34889 ft 485 kts 59°
2026-04-22 19:26 12.43666 -0.75824 34888 ft 485 kts 59°
2026-04-22 19:27 12.46740 -0.69733 34879 ft 477 kts 59°
2026-04-22 19:27 12.49766 -0.63734 34882 ft 471 kts 59°
2026-04-22 19:28 12.52757 -0.57803 34883 ft 467 kts 59°
2026-04-22 19:28 12.55728 -0.51910 34901 ft 468 kts 59°
2026-04-22 19:29 12.58740 -0.45937 34901 ft 476 kts 59°
2026-04-22 19:29 12.61778 -0.39900 34889 ft 477 kts 59°
2026-04-22 19:30 12.63792 -0.35893 34890 ft 478 kts 59°
2026-04-22 19:30 12.67344 -0.28825 34892 ft 478 kts 59°
2026-04-22 19:31 12.70380 -0.22780 34892 ft 477 kts 59°
2026-04-22 19:31 12.73410 -0.16741 34888 ft 476 kts 59°
2026-04-22 19:32 12.76411 -0.10755 34575 ft 467 kts 59°
2026-04-22 19:32 12.77883 -0.07817 34262 ft 461 kts 58°
2026-04-22 19:32 12.79342 -0.04905 33877 ft 458 kts 58°
2026-04-22 19:32 12.80790 -0.02015 33450 ft 455 kts 58°
2026-04-22 19:33 12.82067 0.00953 33058 ft 457 kts 65°
2026-04-22 19:33 12.83057 0.04047 32643 ft 456 kts 68°
2026-04-22 19:33 12.83976 0.07146 32238 ft 453 kts 68°
2026-04-22 19:33 12.84874 0.10232 31841 ft 451 kts 68°
2026-04-22 19:34 12.85773 0.13296 31452 ft 448 kts 67°
2026-04-22 19:34 12.86678 0.16338 31059 ft 445 kts 67°
2026-04-22 19:34 12.87587 0.19352 30678 ft 442 kts 66°
2026-04-22 19:34 12.88501 0.22352 30285 ft 439 kts 66°
2026-04-22 19:35 12.89411 0.25327 29895 ft 437 kts 66°
2026-04-22 19:35 12.90320 0.28291 29443 ft 434 kts 66°
2026-04-22 19:35 12.91220 0.31227 29029 ft 430 kts 66°
2026-04-22 19:35 12.92112 0.34138 28623 ft 426 kts 67°
2026-04-22 19:36 12.92993 0.37019 28260 ft 421 kts 67°
2026-04-22 19:36 12.93855 0.39838 27856 ft 418 kts 68°
2026-04-22 19:36 12.94722 0.42672 27468 ft 415 kts 68°
2026-04-22 19:36 12.95592 0.45519 27083 ft 412 kts 69°
2026-04-22 19:37 12.96435 0.48277 26704 ft 409 kts 69°
2026-04-22 19:37 12.97281 0.51047 26330 ft 406 kts 69°
2026-04-22 19:37 12.98122 0.53803 25956 ft 403 kts 70°
2026-04-22 19:37 12.98957 0.56541 25585 ft 401 kts 70°
2026-04-22 19:38 12.99786 0.59260 25213 ft 398 kts 71°
2026-04-22 19:38 13.00611 0.61965 24850 ft 396 kts 71°
2026-04-22 19:38 13.01430 0.64655 24472 ft 394 kts 71°
2026-04-22 19:38 13.02246 0.67333 24109 ft 392 kts 72°
2026-04-22 19:39 13.03056 0.69997 23727 ft 391 kts 72°
2026-04-22 19:39 13.03864 0.72652 23337 ft 389 kts 73°
2026-04-22 19:39 13.04667 0.75293 22924 ft 386 kts 73°
2026-04-22 19:39 13.05462 0.77912 22530 ft 384 kts 73°
2026-04-22 19:40 13.06252 0.80513 22154 ft 381 kts 73°
2026-04-22 19:40 13.07036 0.83094 21800 ft 377 kts 73°
2026-04-22 19:40 13.07813 0.85653 21441 ft 374 kts 73°
2026-04-22 19:40 13.08584 0.88194 21088 ft 371 kts 73°
2026-04-22 19:41 13.09347 0.90709 20741 ft 368 kts 73°
2026-04-22 19:41 13.10105 0.93209 20403 ft 365 kts 73°
2026-04-22 19:41 13.10857 0.95690 20056 ft 362 kts 73°
2026-04-22 19:41 13.11602 0.98150 19710 ft 360 kts 73°
2026-04-22 19:42 13.12342 1.00595 19364 ft 358 kts 74°
2026-04-22 19:42 13.13077 1.03025 19010 ft 356 kts 74°
2026-04-22 19:42 13.13808 1.05442 18650 ft 354 kts 73°
2026-04-22 19:42 13.14535 1.07848 18303 ft 352 kts 74°
2026-04-22 19:43 13.15980 1.12629 17531 ft 348 kts 74°
2026-04-22 19:43 13.16693 1.14992 17170 ft 345 kts 73°
2026-04-22 19:43 13.17401 1.17336 16820 ft 342 kts 73°
2026-04-22 19:44 13.18094 1.19632 16422 ft 342 kts 73°
2026-04-22 19:44 13.18804 1.21987 16059 ft 342 kts 73°
2026-04-22 19:44 13.19501 1.24299 15643 ft 345 kts 73°
2026-04-22 19:44 13.20220 1.26690 15216 ft 359 kts 73°
2026-04-22 19:45 13.20968 1.29174 14751 ft 367 kts 73°
2026-04-22 19:45 13.21721 1.31673 14276 ft 366 kts 73°
2026-04-22 19:45 13.22469 1.34157 13797 ft 364 kts 73°
2026-04-22 19:45 13.23214 1.36630 13280 ft 361 kts 73°
2026-04-22 19:46 13.23951 1.39080 12776 ft 358 kts 73°
2026-04-22 19:46 13.24682 1.41511 12292 ft 355 kts 73°
2026-04-22 19:46 13.25406 1.43918 11815 ft 352 kts 73°
2026-04-22 19:46 13.26123 1.46306 11356 ft 349 kts 73°
2026-04-22 19:47 13.26836 1.48679 10898 ft 347 kts 73°
2026-04-22 19:47 13.27535 1.51007 10725 ft 335 kts 73°
2026-04-22 19:47 13.28210 1.53257 10561 ft 325 kts 72°
2026-04-22 19:47 13.28864 1.55435 10419 ft 314 kts 72°
2026-04-22 19:48 13.29497 1.57548 10294 ft 305 kts 72°
2026-04-22 19:48 13.30112 1.59598 10169 ft 297 kts 72°
2026-04-22 19:48 13.30721 1.61631 10052 ft 304 kts 72°
2026-04-22 19:48 13.31373 1.63804 9976 ft 334 kts 72°
2026-04-22 19:49 13.32084 1.66144 9851 ft 348 kts 70°
2026-04-22 19:49 13.33198 1.68348 9698 ft 349 kts 54°
2026-04-22 19:49 13.34709 1.70282 9566 ft 347 kts 50°
2026-04-22 19:49 13.36295 1.72142 9419 ft 345 kts 49°
2026-04-22 19:50 13.37880 1.73971 9043 ft 342 kts 49°
2026-04-22 19:50 13.39416 1.75877 8125 ft 351 kts 53°
2026-04-22 19:50 13.40899 1.77926 7154 ft 362 kts 54°
2026-04-22 19:50 13.42380 1.80019 6423 ft 363 kts 54°
2026-04-22 19:51 13.43792 1.82159 5809 ft 360 kts 61°
2026-04-22 19:51 13.44840 1.84418 5694 ft 342 kts 70°
2026-04-22 19:51 13.45389 1.86718 5564 ft 321 kts 80°
2026-04-22 19:51 13.45701 1.88910 5398 ft 299 kts 81°
2026-04-22 19:52 13.45994 1.90952 5272 ft 280 kts 80°
2026-04-22 19:52 13.46276 1.92870 5152 ft 263 kts 81°
2026-04-22 19:52 13.46546 1.94667 5052 ft 247 kts 80°
2026-04-22 19:52 13.46802 1.96358 4971 ft 231 kts 80°
2026-04-22 19:53 13.47040 1.97923 4869 ft 212 kts 80°
2026-04-22 19:53 13.47253 1.99318 4715 ft 190 kts 80°
2026-04-22 19:53 13.47422 2.00658 4262 ft 183 kts 85°
2026-04-22 19:53 13.47482 2.01904 4039 ft 168 kts 86°
2026-04-22 19:54 13.47530 2.03038 3863 ft 150 kts 86°
2026-04-22 19:54 13.47573 2.04042 3629 ft 133 kts 86°
2026-04-22 19:54 13.47616 2.04981 3217 ft 131 kts 86°
2026-04-22 19:54 13.47658 2.05906 2799 ft 130 kts 86°
2026-04-22 19:55 13.47699 2.06804 2589 ft 124 kts 86°
2026-04-22 19:55 13.47740 2.07699 2401 ft 127 kts 86°
2026-04-22 19:55 13.47782 2.08624 2237 ft 132 kts 86°
2026-04-22 19:55 13.47825 2.09571 2061 ft 133 kts 87°
2026-04-22 19:56 13.47868 2.10520 1898 ft 133 kts 88°
2026-04-22 19:56 13.47910 2.11446 1719 ft 126 kts 88°
2026-04-22 19:56 13.47951 2.12335 1576 ft 124 kts 88°
2026-04-22 19:56 13.47992 2.13233 1437 ft 128 kts 88°
2026-04-22 19:57 13.48038 2.14201 1338 ft 153 kts 88°
2026-04-22 19:57 13.48113 2.15234 1116 ft 138 kts 86°
2026-04-22 19:57 13.48139 2.16179 930 ft 129 kts 91°
2026-04-22 19:57 13.48167 2.17096 766 ft 130 kts 86°
2026-04-22 19:58 13.48210 2.17942 729 ft 101 kts 87°
2026-04-22 19:58 13.48234 2.18506 727 ft 58 kts 87°
2026-04-22 19:58 13.48253 2.18910 722 ft 56 kts 87°
2026-04-22 19:58 13.48270 2.19293 718 ft 51 kts 87°
2026-04-22 19:59 13.48278 2.19630 718 ft 31 kts 108°
2026-04-22 20:00 13.48058 2.18821 725 ft 22 kts 267°
2026-04-22 20:00 13.48049 2.18664 725 ft 22 kts 266°
2026-04-22 20:01 13.48011 2.18529 726 ft 19 kts 204°
2026-04-22 20:01 13.47913 2.18481 726 ft 16 kts 268°
2026-04-22 20:01 13.47870 2.18435 727 ft 7 kts 175°
2026-04-22 20:01 13.47826 2.18438 727 ft 0 kts 177°